Terminal Aerodrome Forecast
Issued by NWS Charleston, WV

Current Version | Previous Version | Graphics & Text | Print | Product List | Glossary On
Versions: 1 2 3 4 5 6 7 8 9 10 11 12 13 14 15 16 17 18 19 20 21 22
000
FTUS41 KRLX 010500
TAFEKN
TAF
KEKN 010540Z 0106/0206 00000KT 5SM -RA BR OVC008
     FM011300 00000KT 5SM BR OVC014
     FM011400 VRB03KT P6SM BKN016
     FM011900 33007KT P6SM VCTS BKN027CB
     FM012300 33006KT P6SM BKN035
     FM020300 00000KT P6SM SCT045=

USA.gov is the U.S. government's official web portal to all federal, state and local government web resources and services.